Location: Mactaquac Provincial Park
(45.9573°N, 66.8897°W)
Time: 23:30:10
(UTC-03:00)

CENTAUR R/B - Visible Passes

Search period start: 30 April 2017 00:00
Search period end: 10 May 2017 00:00
Orbit: 830 x 1359 km, 63.5° (Epoch: 29 April)

Date Brightness Start Highest point End Pass type
(mag) Time Alt. Az. Time Alt. Az. Time Alt. Az.
30 Apr 4.2 01:36:41 10° NNW 01:43:44 39° NE 01:51:22 10° ESE visible
30 Apr 3.0 03:27:18 10° NW 03:35:08 74° SW 03:43:31 10° SSE visible
30 Apr 4.3 05:19:47 10° WNW 05:24:54 19° WSW 05:30:09 10° SW visible
30 Apr 4.7 21:02:46 10° W 21:08:21 29° NNW 21:14:35 10° NNE visible
30 Apr 5.2 22:56:39 10° NW 23:01:39 20° N 23:07:02 10° NE visible
01 May 4.6 00:48:26 10° NNW 00:54:56 30° NNE 01:01:57 10° E visible
01 May 3.1 02:39:02 10° NW 02:46:50 79° NE 02:55:16 10° SE visible
01 May 3.8 04:30:28 10° NW 04:37:07 30° WSW 04:44:04 10° SSW visible
01 May 5.1 22:07:31 10° NW 22:12:30 20° N 22:17:54 10° NE visible
02 May 4.8 00:00:05 10° NNW 00:05:59 25° NNE 00:12:21 10° ENE visible
02 May 3.6 01:50:49 10° NW 01:58:24 57° NE 02:06:36 10° ESE visible
02 May 3.3 03:41:44 10° NW 03:49:10 46° WSW 03:54:16 22° S visible
02 May 5.0 21:18:14 10° WNW 21:23:25 23° NNW 21:29:06 10° NE visible
02 May 5.0 23:11:33 10° NW 23:16:56 21° NNE 23:22:43 10° ENE visible
03 May 4.1 01:02:38 10° NNW 01:09:48 42° NE 01:17:33 10° ESE visible
03 May 3.0 02:53:16 10° NW 03:01:04 68° WSW 03:05:29 31° SSE visible
03 May 4.4 04:46:09 10° WNW 04:50:42 16° WSW 04:52:31 15° WSW visible
03 May 5.1 22:22:46 10° NW 22:27:48 20° N 22:33:14 10° NE visible
04 May 4.4 00:14:24 10° NNW 00:21:02 32° NNE 00:28:12 10° E visible
04 May 3.0 02:04:58 10° NW 02:12:49 85° NE 02:17:22 31° SE visible
04 May 3.9 03:56:35 10° WNW 04:02:58 27° WSW 04:04:27 25° SW visible
04 May 5.1 21:33:42 10° NW 21:38:39 20° N 21:44:02 10° NE visible
04 May 4.7 23:26:05 10° NNW 23:32:07 26° NNE 23:38:38 10° ENE visible
05 May 3.4 01:16:46 10° NW 01:24:24 61° NE 01:29:35 25° ESE visible
05 May 3.5 03:07:46 10° NW 03:15:04 41° WSW 03:16:42 38° SW visible
05 May 4.9 22:37:35 10° NW 22:43:05 22° NNE 22:49:00 10° ENE visible
06 May 3.9 00:28:34 10° NNW 00:35:51 45° NE 00:42:03 17° ESE visible
06 May 3.1 02:19:15 10° NW 02:27:00 62° WSW 02:29:11 48° S visible
06 May 4.6 04:12:40 10° WNW 04:16:18 14° WSW 04:16:18 14° WSW visible
06 May 5.0 21:48:52 10° NW 21:53:58 20° N 21:59:27 10° NE visible
06 May 4.3 23:40:21 10° NNW 23:47:07 34° NNE 23:54:26 10° E visible
07 May 3.0 01:30:56 10° NW 01:38:47 89° SW 01:41:48 45° SE visible
07 May 4.1 03:22:46 10° WNW 03:28:49 24° WSW 03:28:56 24° WSW visible
07 May 4.6 22:52:04 10° NNW 22:58:14 27° NNE 23:04:55 10° E visible
08 May 3.3 00:42:42 10° NW 00:50:24 66° NE 00:54:32 33° ESE visible
08 May 3.6 02:33:48 10° NW 02:40:57 37° WSW 02:41:40 37° SW visible
08 May 4.8 22:03:37 10° NW 22:09:14 23° NNE 22:15:17 10° ENE visible
08 May 3.7 23:54:30 10° NNW 00:01:53 48° NE 00:07:22 21° ESE visible
09 May 3.2 01:45:15 10° NW 01:52:55 57° WSW 01:54:30 50° SSW visible
09 May 4.8 03:39:24 10° W 03:41:40 12° W 03:41:40 12° W visible
09 May 4.9 21:14:57 10° NW 21:20:07 20° N 21:25:41 10° NE visible
09 May 4.2 23:06:18 10° NNW 23:13:12 36° NNE 23:20:15 11° E visible
